Voltar ao catálogo

CZ-2C DEB

AtivoHEO
NORAD 43373·DEBRIS·🇨🇳 China

Lançado Dec 29, 2003 de Xichang Satellite Launch Center

Loading…

Próximas Passagens (próximas 24 horas)

TLE

AtualizadoSource: Space-Track

Época: Sep 13, 2026, 04:45 UTC

1 43373U 03061C   26256.19853627  .00031997  52060-6  98303-3 0  9996
2 43373  18.6585 262.3581 6119184 262.1914  28.6852  3.93815584232809

Acompanhe CZ-2C DEB em tempo real com AllMySat

Download on the App Store